Regional Weather Roundup
Issued by NWS

Home | Current Version | Previous Version | Graphics & Text | Print | Product List | Glossary On
Versions: 1 2 3 4 5 6 7 8 9 10 11 12 13 14 15 16 17 18 19 20 21 22 23 24 25 26 27 28 29 30 31 32 33 34 35 36 37 38 39 40 41 42 43 44 45 46 47 48 49 50
000
ASUS43 KLOT 040112
RWRIL

ILLINOIS REGIONAL WEATHER ROUNDUP
NATIONAL WEATHER SERVICE CHICAGO/ROMEOVILLE IL
800 PM CDT MON AUG 03 2015

NOTE: "FAIR" INDICATES FEW OR NO CLOUDS BELOW 12,000 FEET WITH NO
SIGNIFICANT WEATHER AND/OR OBSTRUCTIONS TO VISIBILITY.

* THESE STATIONS ARE NOT UNDER NWS QUALITY CONTROL. THEY ALSO MAY NOT
  REPORT WEATHER SUCH AS PRECIPITATION OR FOG.

ILZ001-002-007-009-015-016-024-040200-
NORTHWEST ILLINOIS

CITY           SKY/WX    TMP DP  RH WIND       PRES   REMARKS
MOLINE         CLEAR     76  54  46 NW7       29.90R
STERLING*      CLEAR     72  57  60 NW5       29.87R
SAVANNA*       CLEAR     76  54  47 W6        29.89R
$$

ILZ003-004-008-010-011-017-018-040200-
NORTH CENTRAL ILLINOIS

CITY           SKY/WX    TMP DP  RH WIND       PRES   REMARKS
ROCKFORD       CLEAR     74  53  48 W5        29.89S
FREEPORT*      CLEAR     71  55  56 W5        29.91R
ROCHELLE*      CLEAR     70  57  63 W6        29.89S
DE KALB*       CLEAR     72  55  54 W7        29.89S
PERU*          CLEAR     72  56  55 W5        29.90R
$$

ILZ005-006-012>014-019>023-040200-
NORTHEAST ILLINOIS

CITY           SKY/WX    TMP DP  RH WIND       PRES   REMARKS
CHICAGO-OHARE  PTCLDY    76  50  40 NW10      29.86S
CHICAGO-MIDWAY PTCLDY    79  49  34 W10       29.86S
AURORA         CLEAR     70  58  65 W7        29.88S
LANSING*       CLEAR     74  50  41 W5        29.87S
JOLIET*        CLEAR     76  54  45 W3        29.88S
WAUKEGAN       CLEAR     71  54  54 CALM      29.86R
DUPAGE AIRPORT CLEAR     73  52  47 W5        29.87S
KANKAKEE*      CLEAR     73  57  55 CALM      29.89R
WHEELING       CLEAR     77  48  35 W8        29.87S
MORRIS*        CLEAR     71  58  62 W3        29.88R
ROMEOVILLE*    CLEAR     72  54  53 W7        29.88R
NORTHERLY ISL    N/A     78  48  34 W7          N/A
$$

LMZ740>746-040200-
SOUTHERN LAKE MICHIGAN

STATION/POSITION SKY/WX   TEMP    WIND        PRES    VSBY  WAVE
                          AIR SEA DIR/SP/G                  HT/PER
                          (F)     (DEG/KT/KT) (MB)    (MI)  (FT/S)
HARRISON CRIB              78     290/ 13/ 15   N/A
BURNHAM HARBOR             78     270/  6/ 13   N/A
CALUMET HARBOR             79     240/  4/ 11   N/A
BURNS HARBOR               79      70/  4/  5 1011.5S
MICHIGAN CITY              76     250/  1/  2   N/A
MICHIGAN CITY 6N           75 75  240/  2/  2   N/A           1/ 4
ST. JOSEPH                 73 74  230/  2/  4   N/A           1/ 4
$$

ILZ025>027-034>036-040-047-049-050-058-095>099-040200-
WEST-CENTRAL ILLINOIS

CITY           SKY/WX    TMP DP  RH WIND       PRES   REMARKS
QUINCY         PTCLDY    77  62  59 W5        29.92R
GALESBURG*     CLEAR     74  60  60 CALM      29.91S
MACOMB*        CLEAR     74  64  69 CALM      29.94R
JACKSONVILLE*  CLEAR     79  71  76 CALM      29.90S HX  81
PITTSFIELD*    CLEAR     78  67  68 CALM      29.92S HX  81
$$

ILZ028>032-037-038-041>044-048-051>054-059>061-040200-
CENTRAL ILLINOIS

CITY           SKY/WX    TMP DP  RH WIND       PRES   REMARKS
PONTIAC        CLEAR     72  62  70 W3        29.90S
BLOOMINGTON    CLEAR     76  60  57 N7        29.92R
DECATUR        CLEAR     78  62  57 NW6       29.90R HX  80
PEORIA         CLEAR     77  59  53 NW3       29.91R
LACON*         CLEAR     74  59  58 CALM      29.89R
LINCOLN*       CLEAR     78  60  53 CALM      29.89S
SPRINGFIELD    CLEAR     76  67  73 W6        29.91R
TAYLORVILLE    CLEAR     73  68  83 W3        29.91R
$$

ILZ033-039-045-046-055>057-062-063-040200-
EAST-CENTRAL ILLINOIS

CITY           SKY/WX    TMP DP  RH WIND       PRES   REMARKS
CHAMPAIGN      CLEAR     73  64  73 NW6       29.89S
DANVILLE*      CLEAR     72  63  74 NW5       29.86S
RANTOUL*       CLEAR     77  60  54 NW6       29.89S
MATTOON        CLEAR     76  64  66 W6        29.89R
PARIS*         CLEAR     75  66  71 CALM      29.89R
$$

ILZ079-100>102-040200-
SOUTHWEST ILLINOIS

CITY           SKY/WX    TMP DP  RH WIND       PRES   REMARKS
ALTON          CLEAR     79  68  69 NW6       29.90S HX  81
BELLEVILLE     CLEAR     84  72  68 NE2       29.88R HX  89
CAHOKIA*       CLEAR     85  70  60 NE3       29.89R HX  89
SPARTA*        CLEAR     85  71  61 CALM      29.91R HX  90
$$

ILZ064>066-069>071-074>076-080>082-084>086-088>090-092>094-040200-
SOUTH-CENTRAL ILLINOIS

CITY           SKY/WX    TMP DP  RH WIND       PRES   REMARKS
CARBONDALE     MOCLDY    84  75  74 SW5       29.89R HX  92
CAIRO*         CLEAR     84  73  68 CALM      29.89S HX  90
EFFINGHAM*     CLEAR     78  64  60 W5        29.91R HX  80
MARION         PTCLDY    84  75  74 CALM      29.90R HX  92
MT. VERNON     CLEAR     82  68  61 CALM      29.90R HX  85
CENTRALIA*     CLEAR     81  65  59 NW5       29.90S HX  82
SALEM*         CLEAR     83  68  60 W3        29.90R HX  86
METROPOLIS*    CLEAR     85  76  73 CALM      29.90S HX  95
$$

ILZ067-068-072-073-078-083-087-091-040200-
SOUTHEAST ILLINOIS

CITY           SKY/WX    TMP DP  RH WIND       PRES   REMARKS
LAWRENCEVILLE  CLEAR     81  68  64 NW6       29.88R HX  84
FLORA*         CLEAR     81  66  60 NW5       29.88F HX  83
FAIRFIELD*     CLEAR     82  71  69 CALM      29.88R HX  86
HARRISBURG*    PTCLDY    86  73  64 CALM      29.90S HX  92
ROBINSON*      CLEAR     77  68  73 NW3       29.88S
CARMI*         CLEAR     82  67  59 W5        29.88R HX  84
$$

ABBREVIATIONS USED IN REMARKS
   TC - TEMPERATURE IN CELSIUS
  WCI - WIND CHILL INDEX
   HX - HEAT INDEX
  VSB - VISIBILITY
$$



USA.gov is the U.S. government's official web portal to all federal, state and local government web resources and services.